Location: Franzen
(48.6167°N, 15.3833°E)
Time: 10:14:39
(UTC+00:00)

Cosmos 968 Rocket - Pass Details

Date: 22 April 2021
Orbit: 741 x 770 km, 74.0° (Epoch: 16 May)

Event Time Altitude Azimuth Distance (km) Brightness Sun altitude
Exits shadow 22:22:55 65° 43° (NE) 851 3.7 -28.4°
Drops below altitude 10° 22:27:25 10° 25° (NNE) 2,320 6.7 -28.5°
Sets 22:29:48 0° 24° (NNE) 3,248 7.6 -28.6°
